Location: Pilipovskiye Korichintsy
(49.1833°N, 27.4667°E)
Time: 22:33:12
(UTC+00:00)

Cosmos 921 Rocket - Pass Details

Date: 14 July 2020
Orbit: 572 x 631 km, 75.8° (Epoch: 10 August)

Event Time Altitude Azimuth Distance (km) Brightness Sun altitude
Rises 00:28:29 0° 339° (NNW) 2,905 7.1 -13.3°
Reaches altitude 10° 00:30:45 10° 339° (NNW) 1,986 6.2 -13.1°
Maximum altitude 00:35:12 86° 251° (WSW) 615 3.0 -12.7°
Drops below altitude 10° 00:39:31 10° 163° (SSE) 1,932 5.2 -12.3°
Enters shadow 00:40:28 - 163° (SSE) 2,316 5.6 -12.2°
